When you browse on this site, cookies collect data to enhance your experience and personalize the content and advertising you see.
Visit our Privacy Policy to learn more. By continuing to use the site, you agree to this use of cookies and data.
  • In Austria
  • List of Countries
  • For 7 days
  • Water Temperature
  • Satellite Maps
  • Weather Map
  • News
  • Weather Widgets
  • user-avatar
    Login

    Hourly Weather Troy

    Today, 19 April, Friday

    Time Temperature Precipitation Wind Pressure Humidity
    00:00 +7°C° 1 mm 4 mps 732 mmHg 85%
    01:00 +6°C° 1.1 mm 4 mps 732 mmHg 86%
    02:00 +6°C° 1.1 mm 4 mps 732 mmHg 86%
    03:00 +6°C° 1.1 mm 4 mps 732 mmHg 87%
    04:00 +6°C° 2.1 mm 5 mps 732 mmHg 87%
    05:00 +5°C° 2.1 mm 5 mps 731 mmHg 88%
    06:00 +4°C° 2.1 mm 6 mps 731 mmHg 88%
    07:00 +4°C° 2.7 mm 7 mps 731 mmHg 88%
    08:00 +3°C° 2.7 mm 7 mps 731 mmHg 87%
    09:00 +2°C° 2.7 mm 8 mps 731 mmHg 86%
    10:00 +2°C° 1.1 mm 8 mps 731 mmHg 86%
    11:00 +2°C° 1.1 mm 9 mps 731 mmHg 85%
    12:00 +2°C° 1.1 mm 9 mps 731 mmHg 84%
    13:00 +2°C° 0.2 mm 9 mps 732 mmHg 84%
    14:00 +2°C° 0.2 mm 8 mps 732 mmHg 84%
    15:00 +2°C° 0.2 mm 8 mps 732 mmHg 83%
    16:00 +2°C° 0.1 mm 8 mps 732 mmHg 83%
    17:00 +1°C° 0.1 mm 8 mps 733 mmHg 83%
    18:00 +1°C° 0.1 mm 8 mps 733 mmHg 83%
    19:00 +1°C° 0 mm 9 mps 733 mmHg 83%
    20:00 +1°C° 0 mm 9 mps 733 mmHg 83%
    21:00 +1°C° 0 mm 9 mps 733 mmHg 84%
    22:00 +1°C° 0.3 mm 9 mps 733 mmHg 84%
    23:00 +1°C° 0.3 mm 9 mps 733 mmHg 84%

    Tomorrow, 20 April, Saturday

    Time Temperature Precipitation Wind Pressure Humidity
    00:00 +1°C° 0.3 mm 9 mps 733 mmHg 84%
    01:00 +1°C° 0.3 mm 9 mps 732 mmHg 85%
    02:00 +1°C° 0.3 mm 9 mps 731 mmHg 85%
    03:00 +1°C° 0.3 mm 9 mps 731 mmHg 85%
    04:00 +1°C° 0.1 mm 9 mps 730 mmHg 86%
    05:00 +2°C° 0.1 mm 9 mps 730 mmHg 86%
    06:00 +2°C° 0.1 mm 9 mps 730 mmHg 87%
    07:00 +2°C° 2.9 mm 9 mps 729 mmHg 87%
    08:00 +2°C° 2.9 mm 8 mps 729 mmHg 88%
    09:00 +2°C° 2.9 mm 8 mps 728 mmHg 89%
    10:00 +2°C° 4.9 mm 8 mps 729 mmHg 89%
    11:00 +2°C° 4.9 mm 8 mps 729 mmHg 89%
    12:00 +2°C° 4.9 mm 8 mps 729 mmHg 89%
    13:00 +4°C° 0.6 mm 7 mps 729 mmHg 88%
    14:00 +4°C° 0.6 mm 6 mps 729 mmHg 88%
    15:00 +5°C° 0.6 mm 5 mps 729 mmHg 88%
    16:00 +5°C° 0 mm 5 mps 730 mmHg 89%
    17:00 +5°C° 0 mm 5 mps 730 mmHg 89%
    18:00 +5°C° 0 mm 4 mps 731 mmHg 90%
    19:00 +5°C° 0 mm 4 mps 732 mmHg 91%
    20:00 +5°C° 0 mm 3 mps 732 mmHg 91%
    21:00 +5°C° 0 mm 3 mps 733 mmHg 92%
    22:00 +6°C° 0 mm 2 mps 733 mmHg 92%
    23:00 +6°C° 0 mm 2 mps 734 mmHg 92%

    Day after tomorrow, 21 April, Sunday

    Time Temperature Precipitation Wind Pressure Humidity
    00:00 +6°C° 0 mm 2 mps 734 mmHg 91%
    01:00 +6°C° 0 mm 2 mps 735 mmHg 93%
    02:00 +6°C° 0 mm 2 mps 735 mmHg 94%
    03:00 +5°C° 0 mm 2 mps 736 mmHg 95%
    04:00 +6°C° 0 mm 2 mps 736 mmHg 94%
    05:00 +6°C° 0 mm 2 mps 737 mmHg 92%
    06:00 +6°C° 0 mm 2 mps 738 mmHg 91%
    07:00 +9°C° 0 mm 1 mps 738 mmHg 82%
    08:00 +11°C° 0 mm 1 mps 739 mmHg 72%
    09:00 +12°C° 0 mm 0 mps 739 mmHg 62%
    10:00 +15°C° 0 mm 1 mps 740 mmHg 56%
    11:00 +16°C° 0 mm 1 mps 740 mmHg 49%
    12:00 +18°C° 0 mm 1 mps 740 mmHg 42%
    13:00 +18°C° 0 mm 2 mps 740 mmHg 42%
    14:00 +18°C° 0 mm 2 mps 740 mmHg 41%
    15:00 +18°C° 0 mm 3 mps 740 mmHg 41%
    16:00 +17°C° 0 mm 3 mps 740 mmHg 46%
    17:00 +16°C° 0 mm 3 mps 741 mmHg 51%
    18:00 +16°C° 0 mm 3 mps 741 mmHg 56%
    19:00 +14°C° 0 mm 3 mps 741 mmHg 59%
    20:00 +13°C° 0 mm 3 mps 742 mmHg 62%
    21:00 +12°C° 0 mm 3 mps 742 mmHg 65%
    22:00 +12°C° 0.6 mm 3 mps 742 mmHg 68%
    23:00 +12°C° 0.6 mm 3 mps 742 mmHg 70%

    22 April, Monday

    Time Temperature Precipitation Wind Pressure Humidity
    00:00 +11°C° 0.6 mm 3 mps 742 mmHg 73%
    01:00 +12°C° 1.3 mm 2 mps 742 mmHg 78%
    02:00 +12°C° 1.3 mm 2 mps 742 mmHg 83%
    03:00 +12°C° 1.3 mm 2 mps 741 mmHg 89%
    04:00 +12°C° 0.1 mm 1 mps 742 mmHg 91%
    05:00 +12°C° 0.1 mm 1 mps 742 mmHg 93%
    06:00 +12°C° 0.1 mm 1 mps 742 mmHg 95%
    07:00 +14°C° 0.1 mm 1 mps 743 mmHg 89%
    08:00 +16°C° 0.1 mm 1 mps 743 mmHg 83%
    09:00 +17°C° 0.1 mm 2 mps 743 mmHg 77%
    10:00 +19°C° 0.1 mm 1 mps 743 mmHg 76%
    11:00 +19°C° 0.1 mm 1 mps 743 mmHg 74%
    12:00 +20°C° 0.1 mm 1 mps 744 mmHg 72%
    13:00 +17°C° 0.5 mm 2 mps 744 mmHg 75%
    14:00 +14°C° 0.5 mm 4 mps 744 mmHg 77%
    15:00 +12°C° 0.5 mm 5 mps 744 mmHg 80%
    16:00 +10°C° 0.2 mm 5 mps 744 mmHg 81%
    17:00 +10°C° 0.2 mm 4 mps 745 mmHg 82%
    18:00 +8°C° 0.2 mm 4 mps 745 mmHg 83%
    19:00 +8°C° 0 mm 4 mps 745 mmHg 83%
    20:00 +7°C° 0 mm 4 mps 746 mmHg 83%
    21:00 +6°C° 0 mm 4 mps 746 mmHg 84%
    22:00 +6°C° 0 mm 4 mps 746 mmHg 84%
    23:00 +5°C° 0 mm 4 mps 746 mmHg 83%

    23 April, Tuesday

    Time Temperature Precipitation Wind Pressure Humidity
    00:00 +5°C° 0 mm 4 mps 746 mmHg 83%
    01:00 +4°C° 0 mm 4 mps 746 mmHg 84%
    02:00 +4°C° 0 mm 4 mps 747 mmHg 85%
    03:00 +4°C° 0 mm 4 mps 747 mmHg 86%
    04:00 +4°C° 0 mm 4 mps 747 mmHg 85%
    05:00 +4°C° 0 mm 4 mps 747 mmHg 84%
    06:00 +4°C° 0 mm 4 mps 748 mmHg 84%
    07:00 +5°C° 0.2 mm 4 mps 748 mmHg 82%
    08:00 +6°C° 0.2 mm 4 mps 748 mmHg 80%
    09:00 +7°C° 0.2 mm 4 mps 749 mmHg 79%
    10:00 +10°C° 0 mm 4 mps 748 mmHg 73%
    11:00 +11°C° 0 mm 4 mps 748 mmHg 68%
    12:00 +13°C° 0 mm 4 mps 748 mmHg 62%
    13:00 +13°C° 0 mm 3 mps 748 mmHg 62%
    14:00 +14°C° 0 mm 3 mps 748 mmHg 62%
    15:00 +14°C° 0 mm 3 mps 748 mmHg 61%
    16:00 +13°C° 0 mm 3 mps 748 mmHg 62%
    17:00 +12°C° 0 mm 3 mps 747 mmHg 62%
    18:00 +11°C° 0 mm 3 mps 747 mmHg 62%
    19:00 +10°C° 0 mm 3 mps 747 mmHg 60%
    20:00 +9°C° 0 mm 3 mps 748 mmHg 58%
    21:00 +8°C° 0 mm 2 mps 748 mmHg 56%
    22:00 +8°C° 0 mm 2 mps 747 mmHg 60%
    23:00 +8°C° 0 mm 2 mps 747 mmHg 64%

    24 April, Wednesday

    Time Temperature Precipitation Wind Pressure Humidity
    00:00 +9°C° 0 mm 2 mps 747 mmHg 69%
    01:00 +9°C° 0.1 mm 3 mps 747 mmHg 67%
    02:00 +8°C° 0.1 mm 4 mps 747 mmHg 64%
    03:00 +8°C° 0.1 mm 4 mps 746 mmHg 62%
    04:00 +7°C° 2 mm 5 mps 746 mmHg 66%
    05:00 +6°C° 2 mm 5 mps 746 mmHg 70%
    06:00 +6°C° 2 mm 5 mps 746 mmHg 75%
    07:00 +6°C° 0.4 mm 5 mps 746 mmHg 72%
    08:00 +6°C° 0.4 mm 5 mps 746 mmHg 70%
    09:00 +6°C° 0.4 mm 5 mps 746 mmHg 67%
    10:00 +7°C° 0 mm 6 mps 745 mmHg 63%
    11:00 +7°C° 0 mm 6 mps 744 mmHg 58%
    12:00 +8°C° 0 mm 6 mps 744 mmHg 54%
    13:00 +8°C° 0 mm 6 mps 743 mmHg 53%
    14:00 +9°C° 0 mm 6 mps 742 mmHg 52%
    15:00 +9°C° 0 mm 6 mps 741 mmHg 50%
    16:00 +9°C° 0.3 mm 6 mps 741 mmHg 57%
    17:00 +8°C° 0.3 mm 5 mps 740 mmHg 63%
    18:00 +7°C° 0.3 mm 5 mps 740 mmHg 69%
    19:00 +8°C° 2.2 mm 5 mps 739 mmHg 74%
    20:00 +8°C° 2.2 mm 5 mps 739 mmHg 80%
    21:00 +8°C° 2.2 mm 5 mps 738 mmHg 85%
    22:00 +8°C° 0.2 mm 4 mps 738 mmHg 89%
    23:00 +10°C° 0.2 mm 4 mps 737 mmHg 94%
    Show more